Change the Weather History Date:

Friday, January 24, 2014

  Actual Average Record
Temperature  
Mean Temperature 35 °F -  
Max Temperature 40 °F 17 °F 40 °F (2014)
Min Temperature 29 °F 1 °F 25 °F (2015)
Degree Days  
Heating Degree Days 30    
Month to date heating degree days 1232  
Moisture  
Dew Point 29 °F    
Average Humidity 79    
Maximum Humidity 89    
Minimum Humidity 69    
Precipitation  
Precipitation 0.03 in - - ()
Month to date precipitation 0.44  
Year to date precipitation 0.44  
Sea Level Pressure  
Sea Level Pressure 29.85 in    
Wind  
Wind Speed 23 mph (NW)    
Max Wind Speed 33 mph    
Max Gust Speed 41 mph    
Averages and records for this station are not official NWS values.
T = Trace of Precipitation, MM = Missing Value Source: NWS Daily Summary

Daily Weather History Graph

Daily Weather History Graph

Search for Another Location

Airport or City:

Trip Planner

Search our weather history database for the weather conditions in past years. The results will help you decide how hot, cold, wet, or windy it might be!

Date:

Astronomy

Jan. 24, 2014 Rise Set
Actual Time 8:21 AM CST 5:34 PM CST
Civil Twilight 7:47 AM CST 6:08 PM CST
Nautical Twilight 7:10 AM CST 6:46 PM CST
Astronomical Twilight 6:33 AM CST 7:22 PM CST
Moon 1:45 AM CST (1/24) 11:59 AM CST (1/24)
Length of Visible Light 10h 20m
Length of Day
9h 12m
Last Quarter, 44% of the Moon is Illuminated
Jan 24
Last Quarter
Jan 30
New
Feb 6
First Quarter
Feb 14
Full
Feb 22
Last Quarter

Hourly Weather History & Observations

Time (CST) Temp. Windchill Dew Point Humidity Pressure Visibility Wind Dir Wind Speed Gust Speed Precip Events Conditions
12:52 AM 32.0 °F 19.2 °F 24.1 °F 73% 29.93 in - WNW 23.0 mph 35.7 mph N/A   Unknown
1:52 AM 30.9 °F 19.1 °F 25.0 °F 79% 29.92 in - WNW 18.4 mph - 0.01 in   Unknown
2:52 AM 30.0 °F 16.9 °F 25.0 °F 82% 29.93 in - NW 21.9 mph - N/A   Unknown
3:52 AM 30.0 °F 16.3 °F 25.0 °F 82% 29.93 in - WNW 24.2 mph 31.1 mph N/A   Unknown
4:52 AM 30.0 °F 16.6 °F 25.0 °F 82% 29.93 in - WNW 23.0 mph - N/A   Unknown
5:52 AM 30.0 °F 16.9 °F 25.0 °F 82% 29.91 in - WNW 21.9 mph 32.2 mph N/A   Unknown
6:52 AM 30.9 °F 17.8 °F 26.1 °F 82% 29.89 in - WNW 23.0 mph 28.8 mph N/A   Unknown
7:52 AM 30.9 °F 19.1 °F 27.0 °F 85% 29.86 in - WNW 18.4 mph 31.1 mph N/A   Unknown
8:52 AM 33.1 °F 21.2 °F 28.0 °F 82% 29.84 in - WNW 20.7 mph 31.1 mph N/A   Unknown
9:52 AM 33.1 °F 23.0 °F 28.9 °F 85% 29.82 in - West 15.0 mph - N/A   Unknown
10:52 AM 35.1 °F 24.8 °F 30.9 °F 85% 29.78 in - WNW 17.3 mph - 0.01 in   Unknown
11:52 AM 37.0 °F 26.2 °F 32.0 °F 82% 29.73 in - West 21.9 mph 29.9 mph 0.01 in   Unknown
12:52 PM 39.9 °F 28.2 °F 32.0 °F 73% 29.70 in - WNW 31.1 mph 39.1 mph N/A   Unknown
1:52 PM 37.9 °F 25.3 °F 32.0 °F 79% 29.71 in - NW 32.2 mph 39.1 mph N/A   Unknown
2:52 PM 37.0 °F 25.4 °F 32.0 °F 82% 29.75 in - NW 25.3 mph - N/A   Unknown
3:52 PM 37.0 °F 25.1 °F 32.0 °F 82% 29.78 in - NW 26.5 mph - N/A   Unknown
4:52 PM 36.0 °F 23.7 °F 32.0 °F 86% 29.80 in - NW 26.5 mph - N/A   Unknown
5:52 PM 36.0 °F 23.9 °F 30.9 °F 82% 29.84 in - NW 25.3 mph 32.2 mph N/A   Unknown
6:52 PM 36.0 °F 25.0 °F 30.9 °F 82% 29.84 in - NW 20.7 mph 32.2 mph N/A   Unknown
7:52 PM 35.1 °F 24.1 °F 30.9 °F 85% 29.86 in - NW 19.6 mph 29.9 mph N/A   Unknown
8:52 PM 35.1 °F 23.8 °F 32.0 °F 89% 29.86 in - NW 20.7 mph - N/A   Unknown
9:52 PM 34.0 °F 22.4 °F 30.9 °F 89% 29.87 in - NNW 20.7 mph 34.5 mph N/A   Unknown
10:24 PM 30.9 °F 22.2 °F 28.9 °F 92% 29.84 in - North 10.4 mph 19.6 mph N/A   Unknown
10:52 PM 30.9 °F 21.7 °F 28.0 °F 89% 29.93 in - North 11.5 mph 20.7 mph 0.01 in   Unknown
11:52 PM 28.0 °F 17.0 °F 23.0 °F 81% 29.97 in - North 13.8 mph 27.6 mph N/A   Unknown